Météo par heure à Alkadar

Ce jour, 15 Mai, Samedi

Heure Température Précipitation Vent Pression Humidité
00:00 +18°C° 0 mm 3 m/s 706 mmHg 55%
01:00 +17°C° 0 mm 3 m/s 706 mmHg 56%
02:00 +17°C° 0 mm 3 m/s 706 mmHg 56%
03:00 +17°C° 0 mm 3 m/s 705 mmHg 57%
04:00 +18°C° 0 mm 3 m/s 706 mmHg 58%
05:00 +19°C° 0 mm 3 m/s 706 mmHg 58%
06:00 +20°C° 0 mm 2 m/s 706 mmHg 59%
07:00 +21°C° 0 mm 2 m/s 706 mmHg 53%
08:00 +24°C° 0 mm 2 m/s 706 mmHg 48%
09:00 +26°C° 0 mm 2 m/s 706 mmHg 41%
10:00 +27°C° 0 mm 2 m/s 706 mmHg 42%
11:00 +27°C° 0 mm 3 m/s 707 mmHg 42%
12:00 +28°C° 0 mm 3 m/s 707 mmHg 42%
13:00 +27°C° 0.1 mm 3 m/s 706 mmHg 43%
14:00 +27°C° 0.1 mm 3 m/s 706 mmHg 44%
15:00 +27°C° 0.1 mm 3 m/s 706 mmHg 45%
16:00 +26°C° 0.1 mm 3 m/s 706 mmHg 50%
17:00 +24°C° 0.1 mm 2 m/s 706 mmHg 56%
18:00 +23°C° 0.1 mm 2 m/s 706 mmHg 61%
19:00 +21°C° 0 mm 2 m/s 706 mmHg 61%
20:00 +19°C° 0 mm 2 m/s 706 mmHg 60%
21:00 +18°C° 0 mm 3 m/s 706 mmHg 60%
22:00 +18°C° 0 mm 3 m/s 706 mmHg 59%
23:00 +18°C° 0 mm 3 m/s 705 mmHg 58%

Demain, 16 Mai, Dimanche

Heure Température Précipitation Vent Pression Humidité
00:00 +18°C° 0 mm 3 m/s 705 mmHg 57%
01:00 +18°C° 0 mm 3 m/s 705 mmHg 57%
02:00 +17°C° 0 mm 3 m/s 705 mmHg 57%
03:00 +17°C° 0 mm 3 m/s 705 mmHg 57%
04:00 +18°C° 0 mm 2 m/s 705 mmHg 57%
05:00 +19°C° 0 mm 2 m/s 705 mmHg 58%
06:00 +19°C° 0 mm 2 m/s 705 mmHg 58%
07:00 +21°C° 0 mm 2 m/s 705 mmHg 51%
08:00 +24°C° 0 mm 2 m/s 705 mmHg 44%
09:00 +26°C° 0 mm 2 m/s 705 mmHg 37%
10:00 +27°C° 0 mm 3 m/s 705 mmHg 35%
11:00 +28°C° 0 mm 4 m/s 704 mmHg 33%
12:00 +29°C° 0 mm 4 m/s 704 mmHg 31%
13:00 +29°C° 0 mm 4 m/s 704 mmHg 32%
14:00 +29°C° 0 mm 4 m/s 704 mmHg 32%
15:00 +29°C° 0 mm 4 m/s 703 mmHg 33%
16:00 +27°C° 0 mm 3 m/s 703 mmHg 39%
17:00 +25°C° 0 mm 2 m/s 703 mmHg 46%
18:00 +24°C° 0 mm 2 m/s 703 mmHg 53%
19:00 +21°C° 0 mm 2 m/s 703 mmHg 50%
20:00 +20°C° 0 mm 3 m/s 703 mmHg 47%
21:00 +18°C° 0 mm 3 m/s 703 mmHg 45%
22:00 +18°C° 0 mm 3 m/s 702 mmHg 42%
23:00 +18°C° 0 mm 3 m/s 702 mmHg 39%

Après-demain, 17 Mai, Lundi

Heure Température Précipitation Vent Pression Humidité
00:00 +18°C° 0 mm 4 m/s 702 mmHg 36%
01:00 +17°C° 0 mm 3 m/s 702 mmHg 35%
02:00 +17°C° 0 mm 3 m/s 702 mmHg 35%
03:00 +17°C° 0 mm 3 m/s 701 mmHg 34%
04:00 +18°C° 0 mm 3 m/s 701 mmHg 38%
05:00 +19°C° 0 mm 3 m/s 701 mmHg 42%
06:00 +20°C° 0 mm 2 m/s 702 mmHg 46%
07:00 +23°C° 0 mm 2 m/s 702 mmHg 42%
08:00 +25°C° 0 mm 2 m/s 702 mmHg 38%
09:00 +27°C° 0 mm 2 m/s 702 mmHg 34%
10:00 +28°C° 0 mm 2 m/s 702 mmHg 34%
11:00 +28°C° 0 mm 2 m/s 702 mmHg 34%
12:00 +29°C° 0 mm 2 m/s 702 mmHg 34%
13:00 +29°C° 0 mm 2 m/s 701 mmHg 35%
14:00 +29°C° 0 mm 2 m/s 701 mmHg 36%
15:00 +29°C° 0 mm 2 m/s 701 mmHg 36%
16:00 +28°C° 0 mm 2 m/s 701 mmHg 43%
17:00 +27°C° 0 mm 1 m/s 701 mmHg 49%
18:00 +25°C° 0 mm 1 m/s 700 mmHg 56%
19:00 +24°C° 0 mm 1 m/s 701 mmHg 53%
20:00 +23°C° 0 mm 2 m/s 701 mmHg 50%
21:00 +21°C° 0 mm 3 m/s 701 mmHg 47%
22:00 +21°C° 0 mm 3 m/s 701 mmHg 46%
23:00 +21°C° 0 mm 3 m/s 701 mmHg 44%

18 Mai, Mardi

Heure Température Précipitation Vent Pression Humidité
00:00 +21°C° 0 mm 3 m/s 701 mmHg 42%
01:00 +20°C° 0 mm 3 m/s 701 mmHg 42%
02:00 +20°C° 0 mm 3 m/s 700 mmHg 42%
03:00 +20°C° 0 mm 2 m/s 700 mmHg 42%
04:00 +20°C° 0 mm 2 m/s 701 mmHg 46%
05:00 +22°C° 0 mm 1 m/s 701 mmHg 49%
06:00 +22°C° 0 mm 1 m/s 702 mmHg 52%
07:00 +23°C° 0 mm 1 m/s 702 mmHg 54%
08:00 +23°C° 0 mm 2 m/s 702 mmHg 56%
09:00 +24°C° 0 mm 3 m/s 702 mmHg 58%
10:00 +23°C° 0 mm 4 m/s 703 mmHg 61%
11:00 +23°C° 0 mm 4 m/s 703 mmHg 64%
12:00 +23°C° 0 mm 5 m/s 703 mmHg 68%
13:00 +22°C° 0.3 mm 5 m/s 703 mmHg 71%
14:00 +21°C° 0.3 mm 4 m/s 703 mmHg 75%
15:00 +20°C° 0.3 mm 4 m/s 704 mmHg 79%
16:00 +20°C° 0.6 mm 3 m/s 704 mmHg 81%
17:00 +19°C° 0.6 mm 2 m/s 704 mmHg 83%
18:00 +20°C° 0.6 mm 1 m/s 704 mmHg 85%
19:00 +19°C° 0.2 mm 1 m/s 704 mmHg 84%
20:00 +19°C° 0.2 mm 1 m/s 704 mmHg 84%
21:00 +19°C° 0.2 mm 1 m/s 704 mmHg 83%
22:00 +18°C° 0 mm 1 m/s 704 mmHg 83%
23:00 +18°C° 0 mm 1 m/s 704 mmHg 84%

19 Mai, Mercredi

Heure Température Précipitation Vent Pression Humidité
00:00 +18°C° 0 mm 1 m/s 704 mmHg 84%
01:00 +16°C° 0 mm 1 m/s 704 mmHg 85%
02:00 +16°C° 0 mm 1 m/s 704 mmHg 85%
03:00 +16°C° 0 mm 1 m/s 704 mmHg 86%
04:00 +18°C° 0 mm 1 m/s 705 mmHg 82%
05:00 +18°C° 0 mm 1 m/s 705 mmHg 79%
06:00 +19°C° 0 mm 1 m/s 705 mmHg 75%
07:00 +20°C° 0 mm 2 m/s 706 mmHg 70%
08:00 +21°C° 0 mm 2 m/s 706 mmHg 64%
09:00 +23°C° 0 mm 2 m/s 706 mmHg 59%
10:00 +24°C° 0.2 mm 3 m/s 706 mmHg 59%
11:00 +24°C° 0.2 mm 3 m/s 706 mmHg 59%
12:00 +25°C° 0.2 mm 3 m/s 706 mmHg 59%
13:00 +24°C° 0.4 mm 3 m/s 706 mmHg 61%
14:00 +24°C° 0.4 mm 3 m/s 706 mmHg 63%
15:00 +24°C° 0.4 mm 3 m/s 707 mmHg 65%
16:00 +23°C° 0.1 mm 2 m/s 707 mmHg 68%
17:00 +23°C° 0.1 mm 2 m/s 707 mmHg 71%
18:00 +22°C° 0.1 mm 1 m/s 707 mmHg 74%
19:00 +21°C° 0 mm 1 m/s 707 mmHg 76%
20:00 +20°C° 0 mm 1 m/s 707 mmHg 79%
21:00 +18°C° 0 mm 2 m/s 706 mmHg 81%
22:00 +18°C° 0 mm 2 m/s 706 mmHg 78%
23:00 +18°C° 0 mm 2 m/s 706 mmHg 75%

20 Mai, Jeudi

Heure Température Précipitation Vent Pression Humidité
00:00 +18°C° 0 mm 2 m/s 706 mmHg 72%
01:00 +18°C° 0 mm 2 m/s 706 mmHg 70%
02:00 +18°C° 0 mm 2 m/s 706 mmHg 67%
03:00 +18°C° 0 mm 2 m/s 706 mmHg 65%
04:00 +19°C° 0 mm 2 m/s 706 mmHg 64%
05:00 +19°C° 0 mm 2 m/s 706 mmHg 62%
06:00 +21°C° 0 mm 1 m/s 707 mmHg 61%
07:00 +23°C° 0 mm 2 m/s 707 mmHg 57%
08:00 +25°C° 0 mm 2 m/s 707 mmHg 52%
09:00 +26°C° 0 mm 3 m/s 707 mmHg 48%
10:00 +27°C° 0 mm 3 m/s 706 mmHg 47%
11:00 +28°C° 0 mm 3 m/s 706 mmHg 46%
12:00 +29°C° 0 mm 4 m/s 706 mmHg 45%
13:00 +28°C° 0 mm 4 m/s 706 mmHg 47%
14:00 +28°C° 0 mm 4 m/s 705 mmHg 49%
15:00 +28°C° 0 mm 4 m/s 705 mmHg 52%
16:00 +27°C° 0 mm 3 m/s 705 mmHg 57%
17:00 +26°C° 0 mm 2 m/s 705 mmHg 63%
18:00 +24°C° 0 mm 1 m/s 705 mmHg 68%
19:00 +23°C° 0 mm 1 m/s 705 mmHg 70%
20:00 +21°C° 0 mm 2 m/s 705 mmHg 72%
21:00 +20°C° 0 mm 2 m/s 704 mmHg 73%
22:00 +20°C° 0 mm 2 m/s 704 mmHg 70%
23:00 +20°C° 0 mm 2 m/s 704 mmHg 67%
Voir plus

Nous avons besoin de votre consentement

Meteoprog et ses fournisseurs de services peuvent stocker et accéder à des données personnelles telles que des cookies, des identifiants d'appareils ou d'autres technologies similaires sur votre appareil et traiter ces données pour personnaliser le contenu et les publicités, ainsi que pour fournir des fonctionnalités de médias sociaux et analyser le trafic.

  • Stocker et/ou accéder à des informations sur votre appareil

    Des cookies, des identifiants d'appareils ou d'autres informations peuvent être stockés ou accessibles sur votre appareil aux fins indiquées ci-dessus.

  • Annonces et contenus personnalisés, mesure des annonces et des contenus, connaissance de l'audience et développement de produits

    Les annonces et le contenu peuvent être personnalisés en fonction d'un profil. D'autres données peuvent être ajoutées pour mieux personnaliser les annonces et le contenu. Les performances des publicités et du contenu peuvent être mesurées. Il est possible d'obtenir des informations sur le public qui a vu les publicités et le contenu. Ces données peuvent être utilisées pour développer ou améliorer l'expérience de l'utilisateur, les systèmes et les logiciels.

En cliquant sur "J'accepte", vous autorisez l'utilisation de cookies, des identifiants d'appareils, des balises web ou d'autres technologies similaires. Vos paramètres peuvent être modifiés dans le navigateur de votre appareil.

Dans certains cas, des intérêts légitimes peuvent être invoqués plutôt qu'un consentement. Vous pouvez en savoir plus à ce sujet dans notre Politique de confidentialité et de cookies.